Wind_Speed
4 6 6 7 9 8 7 8 8 8 9 10 11 12 12 12 12 12 12 11 11 10 10 10 9 8 7 6 6 5 5 5 5 5 6 6 6 5 5 5 4 4 4 4 3 4 5 5 5
3 4 4 5 8 5 5 6 7 8 8 9 10 11 11 11 11 12 12 11 11 11 10 9 9 8 7 6 6 5 5 5 5 5 5 5 5 5 4 4 4 4 3 3 3 4 4 4 4
2 3 3 4 4 3 3 5 6 7 8 8 9 10 9 9 10 11 11 11 11 11 10 9 9 8 7 6 5 5 5 5 5 4 4 4 4 4 4 3 3 3 3 3 3 3 3 4 4
1 2 3 3 1 2 2 4 5 5 6 7 8 9 9 9 9 9 10 10 10 11 10 9 8 8 7 7 6 5 4 4 4 4 4 4 4 3 3 2 2 2 2 2 3 2 3 3 4
2 1 1 1 1 1 2 3 4 4 5 7 7 8 9 8 8 8 9 9 10 10 10 8 7 7 7 7 7 6 4 3 3 3 3 3 3 3 2 2 1 1 1 2 2 2 3 3 3
4 2 1 2 2 2 2 2 3 4 4 6 7 7 8 8 8 8 8 8 9 9 9 8 8 7 7 7 7 7 5 4 3 3 3 3 3 3 2 2 1 1 1 1 1 2 2 3 3
5 4 4 4 4 4 3 3 3 3 3 5 6 6 6 7 7 7 7 8 9 9 9 9 8 8 8 7 7 7 6 4 3 3 3 3 3 3 2 2 1 2 1 1 2 3 3 3 3
7 6 6 6 5 6 5 4 3 3 4 4 5 5 5 6 6 7 7 7 8 9 9 9 8 8 8 7 7 6 5 4 4 3 3 3 3 3 2 1 0 1 2 1 2 3 3 3 3
8 7 8 7 7 7 6 5 4 4 4 4 5 5 5 5 5 6 7 7 7 8 9 8 8 7 7 6 6 6 5 4 3 2 2 3 3 3 2 2 1 1 1 1 1 2 3 3 3
9 9 10 9 8 7 7 6 6 5 4 4 4 4 5 5 5 6 6 7 7 7 7 7 7 7 7 7 6 6 4 3 2 1 1 2 2 2 2 1 1 1 2 2 2 3 3 4 4
11 11 11 10 9 8 8 8 7 6 6 6 5 5 5 5 5 6 6 7 7 7 7 7 6 7 8 7 6 6 5 4 3 2 2 2 3 2 2 3 2 2 2 2 3 3 4 4 5
14 13 12 12 10 10 9 9 8 8 8 7 6 6 6 6 6 7 7 7 7 7 7 7 7 7 7 7 7 6 6 5 4 3 3 3 3 3 3 2 2 2 3 3 3 3 4 5 6
15 14 14 13 12 12 10 10 10 9 9 8 8 8 7 7 7 7 7 7 7 7 8 8 7 7 7 7 7 7 7 6 5 4 3 3 3 3 4 3 4 3 3 3 4 4 5 7 7
15 15 15 15 14 13 12 12 11 10 10 9 9 8 8 8 7 8 8 9 8 8 8 8 8 7 7 7 7 7 7 7 6 6 5 5 5 4 4 4 5 5 5 5 5 6 7 7 7
16 16 16 16 15 14 14 14 13 12 11 11 10 10 10 9 9 8 9 10 10 9 9 9 8 8 8 8 8 7 8 8 8 7 7 7 7 6 6 6 6 7 8 7 7 7 7 8 8
17 17 17 17 16 15 14 15 14 14 13 13 12 12 12 11 10 10 10 11 11 10 10 10 9 9 9 9 8 8 8 9 9 9 9 9 9 9 8 8 8 8 9 8 8 8 8 9 9
17 17 17 18 17 17 16 16 16 16 15 15 14 13 13 12 12 12 12 12 12 12 11 11 11 11 10 11 10 10 9 9 10 10 10 10 11 10 10 10 10 9 9 10 9 9 9 9 9
18 18 18 18 18 17 17 17 17 17 16 16 16 15 15 15 15 14 14 14 14 14 13 13 13 13 12 12 12 12 12 11 11 11 12 12 12 12 11 10 10 10 10 10 11 10 10 10 10
19 18 18 18 18 18 17 18 18 18 18 18 17 17 17 17 17 16 16 16 17 17 16 15 15 15 15 14 13 13 13 13 13 13 13 13 13 13 13 11 11 11 11 10 10 10 10 10 11
18 18 18 18 19 19 19 19 19 20 20 20 19 19 18 19 19 19 18 19 19 19 18 18 17 17 17 16 16 15 16 16 15 15 15 15 14 14 14 13 13 12 12 12 12 11 11 11 11
18 18 18 19 19 19 20 20 21 21 21 21 21 20 20 20 20 20 21 21 20 20 20 19 19 19 18 18 18 17 17 17 17 17 18 17 16 15 15 14 13 13 13 13 13 13 13 13 13
18 19 19 19 19 19 20 20 22 22 22 22 22 22 22 22 22 22 22 22 22 22 21 21 21 20 19 19 19 19 19 19 19 19 19 20 19 18 17 16 15 14 14 14 14 15 15 14 14
20 20 19 20 19 19 20 20 22 22 22 22 23 23 24 24 23 24 24 23 24 24 23 22 22 22 22 21 21 20 20 20 20 21 21 21 21 21 19 18 16 15 15 15 15 16 16 16 16
20 20 20 20 19 20 21 20 22 23 22 22 23 23 24 24 24 24 24 24 24 25 25 25 24 23 23 22 22 21 21 22 22 22 23 22 22 21 20 19 17 17 17 17 18 17 17 17 17
19 18 17 18 19 20 22 22 22 23 23 23 22 22 22 22 23 23 24 24 25 26 26 26 26 25 24 24 23 22 22 23 23 23 23 23 22 21 20 20 19 19 20 20 20 19 19 18 18
19 19 18 17 18 20 23 23 22 23 22 22 22 22 23 24 24 25 25 26 26 26 26 26 26 26 25 25 25 25 25 24 24 23 23 23 22 22 22 21 21 22 22 22 22 21 21 20 19
20 20 19 19 19 19 21 23 23 22 22 22 22 23 24 24 25 26 26 26 26 27 27 26 27 27 27 27 26 26 25 25 25 25 24 24 24 24 23 23 23 23 23 23 23 22 22 21 20
20 20 20 19 20 20 21 23 23 23 23 23 23 24 25 25 26 26 26 26 27 27 27 28 28 29 29 28 28 27 26 26 26 25 25 25 25 24 24 24 24 24 23 22 22 22 23 22 21
19 20 20 20 20 20 20 22 24 24 24 23 24 25 25 26 27 27 28 28 28 29 29 29 29 30 30 30 29 29 28 27 27 26 26 26 26 25 25 25 25 23 23 23 23 22 22 22 22
20 20 20 20 21 21 21 23 24 24 25 25 25 26 27 28 29 29 29 29 29 29 29 29 30 30 30 30 30 30 29 28 28 28 28 27 26 26 26 27 26 25 24 24 23 23 23 22 22
Wind_Direction
97 87 79 77 70 62 61 62 62 61 62 61 57 56 57 54 50 46 40 37 33 32 33 31 33 38 41 47 50 56 63 69 74 83 90 99 102 103 107 112 114 119 124 127 143 160 165 169 176
103 90 84 78 75 66 56 58 60 56 54 51 52 52 51 48 45 43 39 36 31 27 27 26 28 34 38 42 46 50 63 74 76 83 87 96 106 108 108 111 113 117 120 139 155 166 171 175 184
111 94 91 85 85 88 63 55 53 55 47 43 46 48 46 42 40 38 36 32 28 25 22 23 29 34 36 36 36 48 65 79 81 80 80 90 102 110 112 113 116 126 133 146 158 162 176 180 185
142 116 92 87 91 61 55 51 48 49 40 38 40 41 40 38 34 34 32 28 27 25 23 24 31 32 33 36 38 44 57 74 81 81 76 84 96 108 114 115 105 117 133 154 165 172 175 194 194
209 146 94 60 291 330 10 36 35 37 27 31 35 37 36 33 29 27 25 25 23 20 20 25 28 28 30 35 38 36 43 65 78 84 84 85 97 109 115 108 121 120 135 139 158 175 173 177 184
220 215 214 242 278 294 313 349 5 9 12 22 27 31 32 28 25 21 19 19 20 17 17 19 20 25 29 34 37 41 45 57 79 77 78 77 92 112 116 102 115 137 138 157 173 174 179 182 187
227 220 231 243 267 283 291 309 335 344 350 10 13 18 20 20 20 17 12 11 12 11 13 15 18 22 24 27 32 38 45 59 71 70 78 80 95 105 113 140 136 154 171 164 181 185 189 197 200
235 234 245 253 261 270 275 285 316 327 330 344 357 0 0 6 9 8 2 2 6 6 8 9 10 15 18 19 21 30 41 56 62 58 64 69 85 88 83 74 65 219 199 176 174 186 199 208 218
235 232 242 248 252 259 264 272 291 308 314 329 341 345 344 350 356 358 356 356 360 0 2 2 3 5 8 10 11 18 30 42 46 50 54 64 63 61 61 45 348 275 232 204 211 213 236 243 246
230 228 236 243 250 258 260 264 278 292 305 313 324 332 331 335 341 347 347 347 349 350 351 352 352 354 355 356 1 2 2 10 19 20 1 3 6 11 11 347 314 288 259 255 253 244 252 252 251
229 230 238 246 250 256 259 261 269 280 292 293 300 307 313 322 330 335 336 337 339 340 345 343 337 342 343 344 346 349 348 340 333 326 313 321 324 329 329 323 303 286 284 274 269 262 266 260 256
237 238 242 249 254 256 258 261 267 273 282 284 289 297 301 308 312 320 324 324 325 326 329 330 330 327 329 338 342 336 336 333 333 325 314 305 309 313 308 307 297 289 280 284 283 278 277 271 266
241 244 246 250 255 256 254 259 264 270 276 280 283 290 295 300 303 311 314 313 313 315 317 318 320 319 318 323 331 332 327 328 320 309 300 294 296 301 309 300 288 280 271 274 277 277 277 269 270
242 246 248 252 253 253 253 257 261 265 270 276 280 284 290 295 297 303 309 311 312 312 312 313 315 315 314 317 322 321 321 318 305 299 294 292 293 296 298 291 276 272 267 263 265 269 265 264 266
243 247 251 249 251 251 252 256 257 260 264 269 274 279 282 288 292 297 301 304 307 307 307 305 301 303 305 311 312 310 305 306 304 294 290 288 287 288 294 293 280 275 272 267 260 263 265 266 265
244 247 250 250 250 250 251 255 256 257 260 265 270 275 280 283 287 292 298 301 301 300 300 298 294 299 302 304 301 299 299 298 298 293 285 281 279 280 283 284 283 281 276 271 263 265 266 266 268
242 242 245 250 249 251 253 254 257 258 259 263 265 269 275 279 284 287 292 294 295 295 293 291 292 293 295 298 298 294 293 292 296 295 283 277 278 280 280 276 278 279 279 275 272 273 270 269 272
240 239 244 247 250 251 256 258 259 261 260 264 266 269 274 278 281 284 288 290 290 291 289 290 292 290 290 291 290 290 290 286 289 295 290 283 280 277 278 277 275 273 274 275 275 276 275 273 273
236 238 243 246 248 251 255 259 260 261 261 264 267 269 272 277 280 283 286 289 288 288 288 288 287 289 289 289 287 285 286 285 284 288 287 282 278 275 274 275 274 271 271 272 271 271 275 275 275
238 241 245 247 249 250 254 260 262 263 262 265 268 270 272 275 280 282 284 286 285 285 286 286 286 285 286 286 284 283 286 284 284 282 283 279 276 276 274 272 272 269 268 269 268 270 273 276 277
240 242 243 247 251 252 256 262 263 264 265 265 266 270 272 276 278 282 285 283 282 282 282 284 286 285 283 282 281 280 281 281 282 282 280 276 272 273 275 272 271 270 267 267 269 272 274 276 276
242 243 244 247 252 257 258 261 265 265 265 265 267 270 272 274 276 279 280 279 278 278 279 281 284 283 282 281 280 279 278 278 279 280 277 277 274 272 274 271 269 268 269 268 269 272 274 275 276
243 245 246 249 253 256 261 260 266 267 267 268 268 270 272 274 276 277 277 277 275 274 275 277 279 281 283 282 281 279 279 280 279 277 274 274 271 272 271 268 267 267 268 270 270 271 274 275 275
246 248 249 252 257 260 261 263 264 269 270 270 270 270 272 273 274 275 275 275 275 273 273 275 276 277 279 280 281 280 279 280 279 276 272 270 271 272 268 262 263 266 266 268 269 270 272 275 276
246 249 254 257 259 261 265 265 265 269 270 270 271 271 272 274 275 276 277 277 276 275 273 272 274 275 277 278 277 277 279 280 278 277 273 270 270 271 269 268 265 265 265 265 268 271 272 273 275
247 247 247 253 258 262 267 267 269 270 272 272 272 272 274 276 276 276 277 277 276 274 272 271 271 274 275 275 275 276 276 278 278 276 275 275 274 273 269 269 270 267 265 265 268 270 271 271 273
249 249 251 254 257 259 266 271 271 274 275 276 276 275 277 278 278 278 278 277 275 273 273 272 271 272 271 272 274 274 274 275 277 276 274 274 273 269 266 268 270 271 268 266 267 268 268 268 270
251 254 255 254 258 262 267 272 273 276 277 279 279 279 278 279 281 281 280 277 273 272 272 272 271 269 268 271 272 273 274 274 274 274 273 273 270 268 267 268 269 269 268 266 267 268 269 268 267
255 255 256 257 258 262 267 270 274 277 278 280 282 282 281 282 282 282 280 277 275 273 271 270 270 269 268 269 270 270 272 273 271 270 271 271 270 269 266 267 269 269 266 264 265 267 267 268 269
255 256 257 260 264 265 266 271 275 277 278 280 281 282 282 282 283 283 281 279 277 274 272 269 269 270 268 268 268 268 270 270 269 269 270 273 272 268 268 268 268 268 266 264 264 265 265 266 267
Height
5916 5916 5917 5918 5919 5920 5919 5917 5916 5915 5913 5912 5910 5909 5908 5907 5907 5908 5904 5901 5900 5898 5896 5895 5893 5892 5890 5889 5888 5887 5886 5885 5884 5884 5884 5883 5883 5884 5884 5884 5884 5884 5884 5885 5885 5885 5886 5886 5887
5916 5917 5918 5919 5920 5922 5920 5918 5917 5915 5914 5912 5911 5909 5908 5907 5906 5905 5903 5902 5901 5899 5897 5895 5894 5892 5890 5889 5888 5887 5886 5885 5884 5884 5884 5884 5884 5884 5884 5884 5884 5884 5885 5885 5885 5885 5885 5886 5886
5917 5917 5919 5920 5921 5921 5920 5918 5917 5915 5914 5912 5911 5910 5909 5908 5906 5905 5904 5903 5901 5899 5897 5895 5894 5892 5891 5889 5888 5887 5886 5885 5884 5884 5884 5884 5884 5884 5884 5884 5884 5884 5884 5884 5885 5885 5885 5885 5886
5917 5918 5920 5921 5921 5920 5919 5918 5917 5916 5914 5913 5911 5910 5909 5908 5907 5906 5904 5903 5902 5900 5898 5896 5894 5893 5891 5889 5888 5887 5886 5885 5884 5884 5884 5884 5884 5884 5884 5884 5884 5884 5884 5884 5884 5884 5884 5885 5885
5917 5918 5920 5921 5920 5920 5919 5918 5917 5916 5915 5913 5912 5910 5909 5908 5907 5906 5905 5903 5902 5900 5898 5896 5895 5893 5891 5890 5888 5886 5885 5884 5884 5884 5884 5884 5884 5884 5884 5884 5884 5884 5883 5884 5884 5884 5884 5884 5885
5917 5918 5921 5921 5920 5919 5919 5918 5917 5916 5915 5913 5912 5911 5909 5908 5907 5906 5905 5904 5902 5901 5899 5897 5895 5894 5892 5890 5887 5885 5884 5884 5884 5884 5884 5884 5883 5884 5884 5884 5883 5883 5883 5883 5883 5884 5884 5884 5884
5917 5918 5919 5920 5919 5919 5919 5918 5917 5916 5915 5914 5912 5911 5910 5908 5907 5906 5905 5904 5902 5900 5899 5897 5896 5894 5892 5890 5888 5886 5885 5884 5885 5885 5884 5884 5883 5883 5883 5883 5883 5883 5883 5883 5882 5883 5884 5884 5884
5915 5917 5918 5918 5918 5918 5918 5917 5916 5916 5915 5914 5912 5911 5910 5909 5907 5906 5905 5904 5902 5901 5899 5897 5896 5894 5893 5891 5889 5888 5886 5886 5886 5886 5885 5884 5883 5883 5883 5883 5883 5883 5883 5882 5882 5882 5883 5883 5884
5913 5917 5917 5917 5917 5917 5916 5916 5916 5915 5914 5913 5912 5911 5910 5908 5907 5906 5905 5904 5902 5901 5899 5898 5896 5895 5893 5892 5890 5889 5888 5887 5887 5886 5885 5884 5884 5883 5883 5883 5883 5882 5882 5882 5882 5882 5882 5883 5883
5912 5914 5914 5914 5915 5915 5915 5915 5915 5914 5913 5912 5911 5910 5909 5908 5907 5906 5905 5903 5902 5900 5899 5898 5896 5895 5893 5892 5890 5889 5888 5887 5887 5886 5885 5885 5884 5883 5883 5882 5882 5882 5882 5882 5882 5882 5882 5882 5882
5909 5911 5911 5912 5912 5913 5913 5913 5913 5913 5912 5912 5911 5910 5908 5907 5906 5905 5904 5903 5901 5900 5898 5897 5896 5895 5893 5892 5890 5889 5888 5887 5887 5886 5885 5885 5884 5883 5882 5882 5881 5882 5881 5881 5881 5881 5881 5881 5880
5906 5908 5909 5909 5910 5911 5911 5912 5912 5911 5911 5910 5910 5909 5908 5907 5906 5905 5903 5902 5901 5899 5898 5896 5895 5894 5893 5891 5890 5889 5888 5887 5886 5885 5885 5884 5884 5883 5882 5882 5881 5881 5881 5880 5880 5880 5880 5879 5879
5904 5905 5906 5907 5908 5909 5909 5909 5910 5909 5909 5909 5908 5908 5907 5906 5905 5904 5902 5901 5900 5898 5897 5895 5894 5893 5892 5891 5889 5888 5887 5887 5886 5885 5884 5884 5883 5882 5881 5881 5880 5880 5879 5879 5879 5879 5879 5878 5878
5901 5902 5903 5904 5905 5906 5907 5907 5908 5907 5907 5907 5907 5907 5906 5905 5904 5903 5901 5900 5898 5897 5896 5894 5893 5892 5891 5890 5888 5887 5886 5886 5885 5884 5883 5883 5882 5881 5881 5880 5879 5879 5878 5878 5878 5878 5877 5877 5876
5898 5900 5901 5901 5902 5903 5904 5905 5905 5905 5905 5905 5905 5905 5904 5903 5902 5901 5900 5899 5897 5896 5894 5893 5892 5891 5890 5888 5887 5886 5885 5884 5883 5883 5882 5882 5881 5880 5879 5879 5878 5877 5877 5876 5876 5876 5875 5875 5875
5895 5897 5898 5898 5899 5900 5903 5903 5903 5903 5903 5903 5903 5903 5902 5901 5901 5900 5898 5897 5895 5894 5893 5891 5890 5889 5888 5887 5886 5885 5884 5883 5882 5881 5880 5880 5879 5877 5877 5877 5877 5876 5875 5875 5875 5874 5874 5874 5873
5892 5894 5895 5896 5895 5896 5899 5899 5899 5900 5900 5900 5900 5900 5900 5899 5898 5897 5896 5895 5893 5892 5891 5889 5888 5887 5886 5885 5884 5883 5882 5881 5880 5879 5878 5877 5876 5876 5875 5875 5874 5874 5873 5873 5873 5872 5872 5872 5871
5889 5891 5892 5892 5892 5893 5894 5895 5896 5896 5897 5897 5897 5897 5897 5896 5895 5894 5893 5892 5891 5890 5888 5887 5886 5885 5884 5883 5882 5881 5880 5879 5877 5877 5875 5875 5874 5874 5874 5873 5872 5871 5871 5871 5870 5870 5870 5870 5869
5884 5886 5887 5888 5888 5889 5890 5891 5892 5892 5893 5893 5894 5894 5893 5893 5892 5891 5890 5889 5888 5887 5885 5884 5883 5882 5881 5880 5879 5878 5877 5876 5875 5874 5873 5872 5872 5871 5871 5870 5870 5869 5869 5868 5868 5868 5867 5867 5867
5880 5882 5883 5884 5884 5885 5886 5887 5888 5888 5889 5889 5890 5890 5889 5889 5888 5887 5886 5885 5884 5883 5882 5881 5879 5878 5877 5876 5875 5874 5873 5872 5872 5871 5870 5869 5869 5868 5868 5867 5867 5866 5866 5866 5865 5865 5865 5864 5864
5876 5878 5879 5880 5880 5881 5883 5884 5884 5884 5884 5884 5885 5885 5885 5885 5884 5883 5882 5881 5880 5879 5878 5877 5876 5875 5874 5872 5871 5870 5869 5868 5868 5867 5866 5866 5865 5865 5864 5864 5863 5863 5863 5862 5862 5862 5862 5861 5860
5872 5873 5875 5875 5877 5878 5879 5881 5879 5879 5879 5880 5880 5880 5880 5879 5879 5878 5877 5876 5875 5874 5873 5872 5872 5871 5869 5868 5867 5866 5865 5864 5863 5862 5862 5861 5861 5860 5860 5860 5859 5859 5859 5859 5859 5859 5858 5858 5857
5867 5869 5870 5871 5872 5874 5874 5876 5876 5874 5874 5875 5875 5875 5874 5874 5873 5872 5871 5871 5870 5869 5868 5868 5867 5866 5865 5864 5863 5862 5861 5860 5858 5857 5856 5856 5855 5855 5855 5855 5855 5855 5855 5855 5855 5855 5854 5854 5853
5862 5864 5865 5866 5868 5869 5870 5871 5871 5869 5869 5869 5869 5868 5868 5868 5867 5866 5865 5865 5864 5863 5863 5862 5862 5861 5860 5859 5858 5857 5856 5854 5853 5852 5851 5850 5850 5849 5849 5849 5850 5850 5850 5850 5850 5850 5850 5850 5849
5859 5861 5863 5864 5865 5866 5864 5865 5866 5864 5863 5863 5863 5862 5862 5862 5861 5860 5859 5858 5858 5857 5856 5856 5856 5855 5854 5853 5852 5851 5850 5849 5847 5846 5845 5844 5844 5844 5844 5844 5844 5844 5844 5845 5845 5845 5845 5845 5844
5854 5857 5860 5861 5862 5862 5858 5859 5860 5858 5858 5858 5857 5857 5856 5856 5855 5854 5853 5852 5851 5850 5850 5849 5849 5848 5848 5847 5846 5845 5844 5843 5841 5840 5839 5839 5839 5838 5838 5838 5838 5838 5838 5839 5839 5839 5839 5839 5839
5849 5851 5853 5854 5855 5856 5855 5853 5853 5852 5852 5852 5851 5851 5850 5849 5848 5847 5846 5845 5844 5843 5842 5842 5842 5841 5841 5840 5840 5839 5837 5836 5836 5834 5834 5833 5833 5833 5833 5832 5832 5832 5832 5832 5833 5833 5833 5832 5832
5845 5846 5847 5848 5849 5850 5850 5848 5848 5847 5847 5846 5845 5844 5843 5842 5841 5840 5839 5838 5836 5835 5835 5834 5834 5834 5833 5833 5832 5832 5831 5830 5829 5829 5828 5828 5827 5826 5826 5826 5826 5826 5826 5826 5826 5826 5826 5826 5826
5840 5841 5841 5842 5843 5844 5845 5846 5842 5841 5840 5840 5839 5838 5837 5835 5834 5832 5831 5829 5828 5827 5826 5826 5826 5825 5825 5825 5824 5824 5824 5823 5823 5822 5822 5821 5820 5820 5819 5819 5819 5819 5819 5819 5819 5819 5819 5820 5819
5834 5835 5836 5837 5837 5837 5838 5839 5835 5834 5833 5833 5832 5831 5829 5828 5826 5824 5822 5820 5819 5818 5817 5817 5817 5817 5816 5816 5816 5816 5816 5815 5815 5815 5814 5814 5813 5813 5812 5812 5812 5812 5812 5812 5812 5813 5813 5813 5813